Location: Hohenfelde
(53.8441°N, 9.6220°E)
Time: 11:04:20
(UTC+00:00)

Meteor 1-29 - Pass Details

Date: 14 July 2020
Orbit: 440 x 459 km, 97.7° (Epoch: 12 August)

Event Time Altitude Azimuth Distance (km) Brightness Sun altitude
Rises 00:52:54 0° 10° (N) 2,466 8.5 -12.3°
Reaches altitude 10° 00:54:58 10° 4° (N) 1,592 7.0 -12.2°
Maximum altitude 00:58:15 47° 290° (WNW) 610 3.5 -12.0°
Enters shadow 01:00:30 18° 222° (SW) 1,174 4.4 -11.9°
